Flag for Canada Weather past 2 weeks in Camrose, Alberta, Canada

Now
41 °F

Passing clouds.


Feels Like: 37 °F
Forecast: 51 / 79 °F
Wind: 6 mph from Southeast

Location: Edmonton International

Current Time: May 24, 2015 at 6:00:37 AM

Latest Report: May 24, 2015 at 5:00 AM


Visibility: 15 mi

Pressure: 30.05 "Hg

Humidity: 66%

Dew point: 30 °F

Location of CamroseLocation

Historic Weather in Camrose — Graph

°F

Camrose temperature yesterday

Maximum temperature yesterday: 81 °F (at 3:00 PM)
Minimum temperature yesterday: 36 °F (at 4:00 AM)
Average temperature yesterday: 63 °F

Past Weeks' High & Low Weather Summary

 TemperatureHumidityPressure
High81 °F (May 23, 3:00 PM)94% (May 16, 7:57 AM)30.51 "Hg (May 16, 7:57 AM)
Low21 °F (May 17, 6:00 AM)11% (May 22, 4:00 PM)29.84 "Hg (May 15, 8:00 PM)
Average52 °F41%30.15 "Hg
* Reported May 9 5:00 AM — May 24 5:00 AM, Camrose, Weather by CustomWeather, © 2015

Note: Actual official high and low records may vary slightly from our data, if they occured in-between our weather recording intervals... More about our weather records

Advertising

Camrose weather history for previous 24 hours

 ConditionsComfort  
Time TempWeatherWind HumidityBarometerVisibility
5:00 AM
Sun, May 24
41 °FPassing clouds.6 mph66%30.05 "Hg15 mi
4:00 AM43 °FPassing clouds.2 mph66%30.05 "Hg15 mi
3:00 AM45 °FPassing clouds.6 mph61%30.05 "Hg15 mi
2:00 AM54 °FPassing clouds.7 mph47%30.05 "Hg15 mi
1:00 AM59 °FPartly cloudy.13 mph39%30.04 "Hg15 mi
12:00 AM63 °FPartly cloudy.13 mph34%30.04 "Hg15 mi
11:00 PM
Sat, May 23
64 °FPassing clouds.13 mph32%30.04 "Hg15 mi
10:00 PM68 °FScattered clouds.12 mph28%30.04 "Hg15 mi
9:00 PM72 °FScattered clouds.10 mph23%30.04 "Hg15 mi
8:00 PM77 °FScattered clouds.12 mph17%30.05 "Hg15 mi
7:00 PM79 °FScattered clouds.9 mph16%30.07 "Hg15 mi
6:00 PM81 °FPartly sunny.9 mph13%30.09 "Hg15 mi
5:00 PM81 °FPartly sunny.6 mph13%30.10 "Hg15 mi
4:00 PM81 °FBroken clouds.10 mph13%30.11 "Hg15 mi
3:00 PM81 °FPartly sunny.5 mph13%30.11 "Hg15 mi
2:00 PM79 °FPartly sunny.12 mph13%30.12 "Hg15 mi
1:00 PM79 °FPartly sunny.6 mph12%30.12 "Hg15 mi
12:00 PM77 °FPartly sunny.6 mph14%30.12 "Hg15 mi
11:00 AM75 °FPartly sunny.5 mph18%30.11 "Hg15 mi
10:00 AM70 °FScattered clouds.2 mph20%30.12 "Hg15 mi
9:00 AM63 °FPassing clouds.No wind32%30.11 "Hg15 mi
8:00 AM54 °FPassing clouds.No wind44%30.11 "Hg15 mi
7:00 AM45 °FPassing clouds.2 mph57%30.12 "Hg15 mi
6:00 AM36 °FPassing clouds.5 mph65%30.12 "Hg15 mi
Weather by CustomWeather, © 2015

See weather overviewHow to use our weather pages